Weather History for Fairbanks, AK

Change the Weather History Date:

Sunday, August 26, 2012

  Actual Average Record
Temperature  
Mean Temperature 51 °F 53 °F  
Max Temperature 54 °F 63 °F 80 °F (1981)
Min Temperature 48 °F 43 °F 25 °F (1918)
Degree Days  
Heating Degree Days 14 12  
Month to date heating degree days 201 216  
Since 1 June heating degree days 451 484  
Since 1 July heating degree days 336 324  
Cooling Degree Days 0 0  
Month to date cooling degree days 0 0  
Year to date cooling degree days 34 55  
Since 1 June cooling degree days 34 54  
Growing Degree Days 1 (Base 50)    
Moisture  
Dew Point 50 °F    
Average Humidity 93    
Maximum Humidity 100    
Minimum Humidity 88    
Precipitation  
Precipitation 0.82 in 0.06 in 1.38 in (1990)
Month to date precipitation 1.35 1.62  
Year to date precipitation 7.11 7.31  
Snow  
Snow 0.00 in 0.00 in 0.00 in (2002)
Month to date snowfall 0.0 0.0  
Since 1 June snowfall 0.0 0.0  
Since 1 July snowfall 0.0 0.0  
Snow Depth 0.00 in    
Sea Level Pressure  
Sea Level Pressure 29.73 in    
Wind  
Wind Speed 2 mph (East)    
Max Wind Speed 6 mph    
Max Gust Speed -    
Visibility 6 miles    
Events Fog , Rain    
T = Trace of Precipitation, MM = Missing Value Source: NWS Daily Summary

Daily Weather History Graph

Daily Weather History Graph

Search for Another Location

Airport:

Trip Planner

Search our weather history database for the weather conditions in past years. The results will help you decide how hot, cold, wet, or windy it might be!

Date:

Astronomy

Aug. 26, 2012 Rise Set
Actual Time 6:15 AM AKDT 9:28 PM AKDT
Civil Twilight 5:17 AM AKDT 10:26 PM AKDT
Nautical Twilight 3:47 AM AKDT 11:52 PM AKDT
Astronomical Twilight Sun does not rise Sun does not rise
Moon 7:28 PM AKDT (8/26) No Moon Set
Length of Visible Light 17h 09m
Length of Day
15h 13m
Waxing Gibbous, 75% of the Moon is Illuminated
Aug 26
Waxing Gibbous
Aug 31
Full
Sep 8
Last Quarter
Sep 15
New
Sep 22
First Quarter

Hourly Weather History & Observations

Time (AKDT) Temp. Dew Point Humidity Pressure Visibility Wind Dir Wind Speed Gust Speed Precip Events Conditions
12:53 AM 51.1 °F 48.9 °F 92% 29.96 in 10.0 mi Calm Calm - N/A   Overcast
1:53 AM 51.1 °F 48.0 °F 89% 29.96 in 10.0 mi Calm Calm - N/A   Overcast
2:53 AM 50.0 °F 48.0 °F 93% 29.94 in 10.0 mi Calm Calm - 0.00 in   Overcast
3:53 AM 50.0 °F 48.0 °F 93% 29.93 in 10.0 mi Calm Calm - N/A   Overcast
4:53 AM 48.0 °F 46.9 °F 96% 29.92 in 10.0 mi Calm Calm - 0.00 in   Overcast
5:53 AM 48.9 °F 48.0 °F 97% 29.90 in 7.0 mi ENE 4.6 mph - 0.03 in Rain Light Rain
6:40 AM 48.2 °F 48.2 °F 100% 29.87 in 3.0 mi Calm Calm - 0.03 in Rain Rain
6:53 AM 48.9 °F 48.0 °F 97% 29.88 in 4.0 mi East 5.8 mph - 0.05 in Rain Light Rain
7:12 AM 48.2 °F 48.2 °F 100% 29.86 in 2.5 mi North 3.5 mph - 0.00 in Rain Light Rain
7:53 AM 48.9 °F 48.0 °F 97% 29.86 in 2.0 mi ENE 4.6 mph - 0.02 in Rain Light Rain
8:30 AM 50.0 °F 48.2 °F 94% 29.82 in 2.0 mi ENE 3.5 mph - 0.03 in Rain Light Rain
8:53 AM 50.0 °F 48.0 °F 93% 29.82 in 2.5 mi NE 3.5 mph - 0.04 in Rain Light Rain
9:34 AM 51.8 °F 48.2 °F 88% 29.78 in 4.0 mi ENE 3.5 mph - N/A Rain Light Rain
9:53 AM 50.0 °F 48.9 °F 96% 29.79 in 4.0 mi ENE 4.6 mph - N/A Rain Light Rain
10:53 AM 51.1 °F 48.9 °F 92% 29.76 in 3.0 mi East 3.5 mph - N/A Rain Light Rain
11:45 AM 51.8 °F 48.2 °F 88% 29.71 in 4.0 mi Calm Calm - 0.03 in Rain Light Rain
11:53 AM 51.1 °F 48.9 °F 92% 29.73 in 4.0 mi ENE 3.5 mph - 0.04 in Rain Light Rain
12:15 PM 51.8 °F 48.2 °F 88% 29.70 in 5.0 mi ENE 3.5 mph - N/A Rain Light Rain
12:47 PM 51.8 °F 50.0 °F 94% 29.68 in 6.0 mi ENE 4.6 mph - 0.03 in Rain Light Rain
12:53 PM 52.0 °F 50.0 °F 93% 29.69 in 6.0 mi East 4.6 mph - 0.03 in Rain Light Rain
1:17 PM 53.6 °F 50.0 °F 88% 29.66 in 6.0 mi East 5.8 mph - 0.01 in Rain Light Rain
1:53 PM 53.1 °F 51.1 °F 93% 29.66 in 6.0 mi ESE 4.6 mph - 0.03 in Rain Light Rain
2:40 PM 53.6 °F 51.8 °F 94% 29.62 in 5.0 mi Calm Calm - 0.01 in Rain Light Rain
2:51 PM 53.6 °F 51.8 °F 94% 29.62 in 6.0 mi Calm Calm - 0.01 in Rain Light Rain
2:53 PM 54.0 °F 51.1 °F 90% 29.64 in 6.0 mi Calm Calm - 0.01 in Rain Light Rain
3:18 PM 53.6 °F 51.8 °F 94% 29.61 in 5.0 mi SE 3.5 mph - 0.02 in Rain Light Rain
3:31 PM 53.6 °F 51.8 °F 94% 29.61 in 5.0 mi SSE 3.5 mph - 0.03 in Rain Light Rain
3:53 PM 54.0 °F 52.0 °F 93% 29.63 in 4.0 mi South 4.6 mph - 0.05 in Rain Rain
4:53 PM 54.0 °F 51.1 °F 90% 29.62 in 5.0 mi South 5.8 mph - 0.07 in Rain Light Rain
5:53 PM 53.1 °F 51.1 °F 93% 29.60 in 9.0 mi South 4.6 mph - 0.04 in Fog , Rain Light Rain
6:53 PM 53.1 °F 50.0 °F 89% 29.59 in 10.0 mi Variable 3.5 mph - 0.02 in Fog , Rain Light Rain
7:53 PM 52.0 °F 50.0 °F 93% 29.58 in 6.0 mi SE 3.5 mph - 0.05 in Rain Light Rain
8:53 PM 51.1 °F 50.0 °F 96% 29.56 in 5.0 mi Calm Calm - 0.13 in Rain Rain
9:53 PM 51.1 °F 50.0 °F 96% 29.56 in 4.0 mi SSE 5.8 mph - 0.02 in Rain Light Rain
10:53 PM 51.1 °F 50.0 °F 96% 29.56 in 6.0 mi South 4.6 mph - 0.07 in Rain Light Rain
11:53 PM 51.1 °F 50.0 °F 96% 29.57 in 3.0 mi Calm Calm - 0.02 in Rain Light Rain